#timestamp,LO_Frequency,Hit,StdDev 
1583385135.7,286047019.5,P
1583385155.5,286047019.1,P
1583385175.4,286047019.9,P
1583385195.2,286047019.2,Y
1583385215.0,286047002.7,P
1583385215.9,286047002.7,N
1583385235.8,286047003.8,N
1583385255.6,286047003.5,N
1583385275.5,286047003.2,N
1583385295.3,286047003.9,N
1583385315.1,286047005.9,N
1583385335.9,286047004.7,N
1583385355.7,286047004.6,N
1583385375.5,286047004.6,N
1583385395.4,286047006.2,N
1583385415.2,286047008.9,N
1583385435.1,286047007.9,N
1583385436.0,286047007.9,N
1583385455.8,286047008.6,N
1583385475.6,286047009.6,N
1583385495.5,286047012.3,Y
1583385515.3,286047005.5,P
1583385535.1,286047004.7,P
1583385555.9,286047006.8,P
1583385575.7,286047007.0,Y
1583385595.6,286046999.9,P
1583385615.4,286047002.2,N
1583385635.2,286047001.5,N
1583385655.1,286047003.9,N
1583385656.0,286047003.9,N
1583385675.8,286047003.8,N
1583385695.7,286047005.7,Y
1583385715.5,286047001.4,P
1583385735.3,286047003.3,P
1583385755.2,286047005.6,P
1583385775.0,286047005.0,Y
1583385775.9,286047005.0,P
1583385795.8,286047003.9,P
1583385815.6,286047003.1,P
1583385835.4,286047003.0,Y
1583385855.3,286047000.1,P
1583385875.1,286047002.3,N
1583385895.8,286047001.9,N
1583385915.7,286047003.8,N
1583385935.5,286047005.7,Y
1583385955.4,286047002.2,P
1583385975.2,286047003.7,P
1583385995.0,286047004.2,P
1583385995.9,286047004.2,Y
1583386015.8,286047000.2,P
1583386035.6,286047000.2,N
1583386055.5,286047004.4,P
1583386075.3,286047004.1,N
1583386095.1,286047006.0,Y
1583386115.9,286047004.3,P
1583386135.7,286047003.6,P
1583386155.5,286047005.1,P
1583386175.4,286047007.1,Y
1583386195.2,286047004.2,P
1583386215.1,286047005.8,P
1583386216.0,286047005.8,P
1583386235.8,286047004.7,Y
1583386255.6,286047001.9,P
1583386275.5,286047001.6,N
1583386295.3,286047003.5,N
1583386315.2,286047003.9,N
1583386335.9,286047003.4,N
1583386355.7,286047003.2,N
1583386375.6,286047004.5,Y
1583386395.4,286047003.4,P
1583386415.2,286047006.0,P
1583386435.1,286047002.9,N
1583386436.0,286047002.9,N
1583386455.8,286047005.3,Y
1583386475.7,286047002.7,P
1583386495.5,286047002.2,P
1583386515.3,286047002.2,P
1583386535.2,286047004.3,Y
1583386555.0,286047000.3,P
1583386555.9,286047000.3,N
1583386575.8,286047000.5,N
1583386595.6,286047000.5,N
1583386615.4,286046999.8,N
1583386635.3,286047004.2,Y
1583386655.1,286047003.3,P
1583386675.8,286047005.9,P
1583386695.7,286047006.9,P
1583386715.5,286047006.8,N
1583386735.4,286047009.1,Y
1583386755.2,286047001.8,P
1583386775.0,286047001.3,N
1583386775.9,286047001.3,N
1583386795.8,286047001.4,N
1583386815.6,286047003.2,N
1583386835.5,286047005.8,Y
1583386855.3,286047002.4,P
1583386875.1,286047000.4,P
1583386895.9,286046999.8,N
1583386915.7,286047000.6,N
1583386935.5,286047002.3,N
1583386955.4,286047001.7,N
1583386975.2,286047001.3,N
1583386995.1,286047005.9,Y
1583386996.0,286047005.9,P
1583387015.8,286047004.2,N
1583387035.6,286047003.3,N
1583387055.5,286047005.7,Y
1583387075.3,286046999.7,P
1583387095.2,286047001.0,N
1583387115.9,286046998.4,N
1583387135.7,286046998.1,N
1583387155.6,286047002.4,N
1583387175.4,286047001.8,N
1583387195.2,286047002.1,N
1583387215.1,286047000.3,N
1583387216.0,286047000.3,N
1583387235.8,286047001.9,N
1583387255.7,286047002.2,N
1583387275.5,286047000.3,N
1583387295.3,286046998.2,N
1583387315.2,286046998.5,N
1583387335.0,286046999.6,N
1583387335.9,286046999.6,N
1583387355.7,286046999.1,N
1583387375.6,286046996.5,N
1583387395.4,286046996.5,N
1583387415.3,286046999.3,N
1583387435.1,286046999.6,N
1583387436.0,286046999.6,N
1583387455.8,286046996.9,N
1583387475.7,286046997.5,N
1583387495.5,286046995.1,N
1583387515.3,286046999.5,N
1583387535.2,286046996.6,N
1583387555.0,286046999.4,N
1583387555.9,286046999.4,N
1583387575.8,286046998.4,N
1583387595.6,286047001.1,N
1583387615.4,286046999.8,N
1583387635.3,286047001.4,N
1583387655.1,286047005.9,Y
1583387675.8,286047006.3,P
1583387695.7,286047006.8,N
1583387715.5,286047005.4,N
1583387735.4,286047005.5,N
1583387755.2,286047003.3,N
1583387775.0,286047005.6,N
1583387775.9,286047005.6,N
1583387795.8,286047005.3,N
1583387815.6,286047005.0,N
1583387835